Showing default

CHUBUSAT 2, 41338

Orbit data source: Space-Track

CHUBUSAT 2, 41338 is a payload satellite owned by Nagoya (JP) in LEO that was launched on Wed, 17 Feb 2016 UTC via an H-IIA 202 launch vehicle from the Tanegashima Space Center (TNSTA). Payload-class satellites include a variety of spacecraft equipped with specific instruments for various scientific and technological missions. These include communications satellites like Starlink; space stations such as the ISS; scientific satellites like the Hubble; Earth observation satellites from companies like Planet Labs, Umbra, and HawkEye 360; GPS; miniature CubeSats for education and research; and military/defense satellites.

Loading next visibility...
Identifier
41338, 2016-012B
Orbit
LEO
Country
Flag of JPJP / JPN
Related business
Manufacturer
Nagoya
Mission
Non-operational Amateur Science
Bus & Motor
Unknown
Mass
50 kg wet, 50 kg dry
Launch date (UTC)
2016-02-17 (10 years ago)
Launch vehicle
H-IIA 202
Launch site
Tanegashima Space Center (TNSTA)
Object type
Payload
Rocket body
Debris
Shape & HBR
Box, 0.3 m
Radar Cross Section
0.480 m², Medium (>0.1 m² and < 1m²)

Expand to show TLE details & history
Last TLE update: 2 days ago

TLE from 2 days ago
0 CHUBUSAT 2
1 41338U 16012B   26171.42603772  .00004571  00000-0  19641-3 0  9998
2 41338  30.9982 300.1348 0008717 111.0345 249.1229 15.20911760568919
Epoch: 2026-06-20T10:13Z
TLE epoch observation values (Epoch: 2026-06-20T10:13:29.659Z)
Latitude
Longitude
-121.87961°
Altitude
503.733 km
Speed
7.614 km/s
True Right ascension
20h 00m 32s
True Declination
0° 00' 00"
Sunlit
Object was in full shadow at epoch
Visualization orbit readout
Latitude
Unknown
Longitude
Unknown
Altitude
Unknown
Speed
Unknown
Apparent Right ascension
Unknown
Apparent Declination
Unknown
Sunlit
N/A
Visualization observer readout
Local Sidereal Time
21:35:43
Azimuth
Unknown
Elevation
Unknown
Doppler factor
Unknown
Orbital elements
Apogee altitude
512.951 km
Perigee altitude
500.947 km
Semi-major axis
6,885.086 km
Eccentricity
0.00087
Inclination
30.9982°
RAAN
300.1348°
Arg. of periapsis
111.0345°
True anomaly
249.0296°
Mean anomaly
249.1229°
Eccentric anomaly
249.07625°
Mean motion
3.79909 °/min
Orbital period
94.76 mins
BSTAR
0.00019641
Loading maneuver chart data...
Computing Atmospheric mass density...

Documentation

Showing up to 5 results
|